Home   Weather   Buchs   Past weeks

Flag for Switzerland Past Weather in Buchs, St. Gallen, Switzerland — Yesterday and Last 2 Weeks

Now
50 °F

Cool.


Feels Like: 48 °F
Forecast: 36 / 56 °F
Wind: 6 mph from South

Location: Vaduz

Current Time: Feb 26, 2017 at 3:46:36 pm

Latest Report: Feb 26, 2017 at 2:00 pm


Visibility: N/A

Pressure: 30.06 "Hg

Humidity: 43%

Dew Point: 28 °F

Location of BuchsLocation

Past Weather in Buchs — Graph

°F

Buchs Temperature Yesterday

Maximum temperature yesterday: 49 °F (at 3:00 pm)
Minimum temperature yesterday: 34 °F (at 3:00 am)
Average temperature yesterday: 41 °F

High & Low Weather Summary for the Past Weeks

 TemperatureHumidityPressure
High68 °F (Feb 23, 3:00 pm)98% (Feb 11, 11:00 pm)30.68 "Hg (Feb 11, 11:00 pm)
Low26 °F (Feb 15, 6:00 am)21% (Feb 23, 4:00 pm)29.57 "Hg (Feb 23, 4:00 pm)
Average41 °F69%30.25 "Hg
* Reported Feb 11 2:00 pm — Feb 26 2:00 pm, Buchs, Weather by CustomWeather, © 2017

Note: Actual official high and low records may vary slightly from our data, if they occured in-between our weather recording intervals... More about our weather records

Advertising

Buchs Weather History for the Previous 24 Hours

Scroll right to see more
 ConditionsComfort  
Time TempWeatherWind HumidityBarometerVisibility
2:00 pm
Sun, Feb 26
50 °FCool.6 mph43%30.06 "HgN/A
1:00 pm49 °FOvercast.6 mph43%30.09 "Hg5 mi
12:00 pm47 °FCool.5 mph44%30.14 "HgN/A
11:00 am44 °FQuite cool.3 mph45%30.15 "HgN/A
10:00 am43 °FPartly sunny.6 mph44%30.14 "Hg4 mi
9:00 am41 °FQuite cool.3 mph49%30.15 "HgN/A
8:00 am39 °FChilly.5 mph50%30.15 "HgN/A
7:00 am37 °FHaze.6 mph55%30.15 "Hg2 mi
6:00 am36 °FChilly.6 mph60%30.16 "HgN/A
5:00 am39 °FChilly.5 mph51%30.15 "HgN/A
4:00 am39 °FFog.6 mph49%30.14 "Hg6 mi
3:00 am41 °FQuite cool.6 mph46%30.13 "HgN/A
2:00 am41 °FQuite cool.7 mph45%30.13 "HgN/A
1:00 am41 °FFog.6 mph47%30.14 "Hg6 mi
12:00 am41 °FQuite cool.7 mph50%30.16 "HgN/A
11:00 pm
Sat, Feb 25
42 °FQuite cool.5 mph46%30.16 "HgN/A
10:00 pm42 °FFog.6 mph51%30.16 "Hg6 mi
9:00 pm40 °FChilly.5 mph64%30.18 "HgN/A
8:00 pm36 °FChilly.1 mph74%30.21 "HgN/A
7:00 pm41 °FPassing clouds.No wind61%30.19 "Hg9 mi
6:00 pm43 °FQuite cool.1 mph54%30.15 "HgN/A
5:00 pm47 °FCool.3 mph43%30.12 "HgN/A
4:00 pm49 °FHaze.5 mph40%30.11 "Hg7 mi
3:00 pm49 °FCool.5 mph38%30.14 "HgN/A
Weather by CustomWeather, © 2017

See weather overviewHow to use our weather pages

LIVE ANNULAR SOLAR ECLIPSE – Watch the eclipse as it happens